{"data":{"norad_id":57848,"intl_designator":"2023-141J","name":"STARLINK-30426","alt_names":[],"object_type":"PAYLOAD","status":"ACTIVE","operator":null,"country":"US","launch_date":"2023-09-12","launch_site_code":"AFWTR","launch_vehicle":null,"mission":null,"orbit_class":"UNKNOWN","rcs_meters":null,"size_class":null,"mass_kg":null,"dimensions":null,"purposes":["comms"],"wikipedia_slug":null,"has_3d_model":false,"image_url":null,"decayed_at":null,"tle_current":{"epoch":"2026-05-25T02:31:10.547616Z","epoch_age_seconds":69998,"freshness":"FRESH","line1":"1 57848U 23141J   26145.10498319  .00001250  00000+0  54345-4 0  9998","line2":"2 57848  53.1608 289.2129 0001360  90.7042 269.4114 15.30194331152029","mean_motion":15.30194331,"eccentricity":0.000136,"inclination_deg":53.1608,"raan_deg":289.2129,"arg_perigee_deg":90.7042,"mean_anomaly_deg":269.4114,"bstar":5.4345e-5,"rev_number":15202,"period_min":94.105694343995,"perigee_km":474.29993790027,"apogee_km":476.1640542672,"semimajor_km":6853.3689960837,"source":"CELESTRAK","updated_at":"2026-05-25T13:38:18.414596Z"}}}